Location: Newark
(50.1751°N, 5.6239°W)
Time: 23:53:25
(UTC+00:00)

ISS - Pass Details

Date: 02 October 2021
Orbit: 417 x 423 km, 51.6° (Epoch: 18 October)

Event Time Altitude Azimuth Distance (km) Brightness Sun altitude
Rises 20:39:58 0° 280° (W) 2,366 1.2 -26.0°
Reaches altitude 10° 20:43:10 10° 247° (WSW) 1,498 -0.5 -26.4°
Enters shadow 20:43:38 11° 239° (WSW) 1,437 -0.7 -26.5°
